sat.trackr.live / text

‹ back to catalog

STARLINK-3770

NORAD 52554 · 2022-051X

PAYLOAD ACTIVE UNKNOWN

§ Identity

Operator
Country
US
Launch date
2022-05-13
Launch site
AFWTR
Launch vehicle
Mass (kg)
RCS (m²)

Purposes: comms

External: N2YO · Heavens-Above · Gunter

§ Orbital elements

Epoch: 2026-05-25T00:23:32.863776Z

Period
95.44 min
Inclination
53.2147°
Eccentricity
0.0000597
Mean motion
15.08836410 rev/d
Perigee alt
539.3 km
Apogee alt
540.2 km
Semi-major
6,917.9 km
B*
1.0647e-4
RAAN
151.4746°
Arg perigee
99.4855°
Mean anomaly
260.6205°
Rev number
22,289

§ Raw data

STARLINK-37701 52554U 22051X   26145.01635259  .00001407  00000+0  10647-3 0  99922 52554  53.2147 151.4746 0000597  99.4855 260.6205 15.08836410222894

JSON: /api/v1/satellites/52554 · /tle

For live sub-satellite position, see the globe view (requires WebGL).

§ Visibility from observer

Set your observer location to see the next 7 days of passes ≥ 10°. The values pass through the URL so the page stays shareable.

No JS? Fill the form by hand. The geolocation button needs JavaScript.